Forside
METAR-TAF:

METAR-TAF

Lufthavne :

South St. Paul Municipal Airport (Richard E. Fleming Field)

South St. Paul, Minnesota, USA

Breddekreds: 44-51-26N, længdekreds: 093-01-58W, højde: 250 m

Aktuelle vejr

Denne rapport blev lavet for 25 minutter siden, kl. 18:15 UTC
Vind 6 kt fra vestsydvest
Temperatur 28°C
Fugtighed 35%
Tryk 1018 hPa
Sigt: 11.3 km
skyfri

METAR: KSGS 031815Z AUTO 24006KT 7SM CLR 28/11 A3007 RMK AO2 T02820106

Tid: 13:40 (18:40 UTC)


TAF: fraværende

Vejrobservationer og prognoser fra mere end 4000 lufthavne (METAR og TAF).

De gule og røde prikker repræsenterer de meteorologiske stationer.

Flyt musen over at se navnet på stationen.

Så klik over at se vejr observationer og prognoser.

At skifte det kort: Klik på de grønne knapper med et sort kors for at zoome ind; på den grønne knap med en bindestreg for at zoome ud; eller på de grønne pile for tilstødende kort.


METAR-TAF: